This is the latest recevied weather packets stored in our database for station/object SQ7IQO. If no packets are shown the sender has not sent any weather packets the latest 10 day(s).
| Time | Temp. | Humidity | Pressure | Rain* | Wind** | Luminosity | Snow |
|---|---|---|---|---|---|---|---|
| 1787639376 | 18.33° C | 78% | 1022.1 hPa | 0 mm | 0 m/s | - | - |
| 1787639316 | 17.78° C | 78% | 1022.1 hPa | 0 mm | 0 m/s | - | - |
| 1787639256 | 17.22° C | 78% | 1022.1 hPa | 0 mm | 0 m/s | - | - |
| 1787639196 | 17.22° C | 77% | 1022.1 hPa | 0 mm | 0 m/s | - | - |
| 1787639136 | 17.78° C | 77% | 1022.1 hPa | 0 mm | 0 m/s | - | - |
| 1787639076 | 17.78° C | 75% | 1022.1 hPa | 0 mm | 0 m/s | - | - |
| 1787639016 | 18.89° C | 73% | 1022.1 hPa | 0 mm | 0 m/s | - | - |
| 1787638956 | 19.44° C | 73% | 1022.1 hPa | 0 mm | 0 m/s | - | - |
| 1787638896 | 19.44° C | 74% | 1022.1 hPa | 0 mm | 0 m/s | - | - |
| 1787638836 | 19.44° C | 75% | 1022.1 hPa | 0 mm | 0 m/s | - | - |
| 1787638776 | 18.89° C | 75% | 1022.1 hPa | 0 mm | 0 m/s | - | - |
| 1787638716 | 18.33° C | 76% | 1022 hPa | 0 mm | 0 m/s | - | - |
| 1787638656 | 18.33° C | 74% | 1022.1 hPa | 0 mm | 0 m/s | - | - |
| 1787638596 | 18.89° C | 73% | 1022.1 hPa | 0 mm | 0 m/s | - | - |
| 1787638536 | 18.89° C | 75% | 1022.1 hPa | 0 mm | 0 m/s | - | - |
| 1787638476 | 18.89° C | 76% | 1022.1 hPa | 0 mm | 0 m/s | - | - |
| 1787638416 | 18.89° C | 75% | 1022.1 hPa | 0 mm | 0 m/s | - | - |
| 1787638356 | 18.89° C | 75% | 1022.1 hPa | 0 mm | 0 m/s | - | - |
| 1787638296 | 18.33° C | 78% | 1022.1 hPa | 0 mm | 0 m/s | - | - |
| 1787638236 | 18.33° C | 79% | 1022.1 hPa | 0 mm | 0 m/s | - | - |
| 1787638176 | 17.78° C | 79% | 1022.1 hPa | 0 mm | 0 m/s | - | - |
| 1787638116 | 17.22° C | 80% | 1022.1 hPa | 0 mm | 0 m/s | - | - |
| 1787638056 | 17.22° C | 80% | 1022.1 hPa | 0 mm | 0 m/s | - | - |
| 1787637996 | 16.67° C | 80% | 1022.1 hPa | 0 mm | 0 m/s | - | - |
| 1787637936 | 16.67° C | 80% | 1022 hPa | 0 mm | 0 m/s | - | - |
* Rain latest hour (hover to see other rain measurements)
** Current wind speed in m/s (hover to see current wind gust speed)